Weather History for KTBN - February, 2013

Change the Weather History Date:

Friday, February 22, 2013

  Actual Average Record
Temperature  
Mean Temperature 26 °F -  
Max Temperature 32 °F 46 °F 67 °F (2012)
Min Temperature 20 °F 32 °F 16 °F (2009)
Degree Days  
Heating Degree Days 39    
Moisture  
Dew Point 27 °F    
Average Humidity 93    
Maximum Humidity 100    
Minimum Humidity 73    
Precipitation  
Precipitation 0.00 in - - ()
Sea Level Pressure  
Sea Level Pressure 29.93 in    
Wind  
Wind Speed 5 mph (WSW)    
Max Wind Speed 12 mph    
Max Gust Speed 17 mph    
Visibility 10 miles    
Events Snow    
Averages and records for this station are not official NWS values.
T = Trace of Precipitation, MM = Missing Value Source: NWS Daily Summary

Daily Weather History Graph

Daily Weather History Graph

Search for Another Location

Airport or City:

Trip Planner

Search our weather history database for the weather conditions in past years. The results will help you decide how hot, cold, wet, or windy it might be!

Date:

Astronomy

Feb. 22, 2013 Rise Set
Actual Time 6:49 AM CST 5:55 PM CST
Civil Twilight 6:22 AM CST 6:21 PM CST
Nautical Twilight 5:52 AM CST 6:52 PM CST
Astronomical Twilight 5:21 AM CST 7:22 PM CST
Moon 3:09 PM CST (2/22) 4:32 AM CST (2/22)
Length of Visible Light 11h 59m
Length of Day
11h 06m
Waxing Gibbous, 90% of the Moon is Illuminated
Feb 22
Waxing Gibbous
Feb 25
Full
Mar 4
Last Quarter
Mar 11
New
Mar 19
First Quarter

Hourly Weather History & Observations

Time (CST) Temp. Windchill Dew Point Humidity Pressure Visibility Wind Dir Wind Speed Gust Speed Precip Events Conditions
12:48 AM 32.0 °F 27.5 °F 32.0 °F 100% 29.82 in 10.0 mi SSW 4.6 mph - N/A   Overcast
12:50 AM 32.0 °F 27.5 °F 32.0 °F 100% 29.82 in 10.0 mi SSW 4.6 mph - N/A   Overcast
12:55 AM 32.5 °F 28.1 °F 32.5 °F 100% 29.82 in 7.0 mi SSW 4.6 mph - 0.00 in Snow Light Snow
1:02 AM 32.0 °F 27.5 °F 32.0 °F 100% 29.82 in 4.0 mi SSW 4.6 mph - N/A Snow Light Snow
1:14 AM 32.0 °F 27.5 °F 32.0 °F 100% 29.83 in 6.0 mi SSW 4.6 mph - N/A Snow Light Snow
1:16 AM 32.0 °F 27.5 °F 32.0 °F 100% 29.83 in 6.0 mi SSW 4.6 mph - N/A Snow Light Snow
1:20 AM 32.0 °F 27.5 °F 32.0 °F 100% 29.83 in 7.0 mi SSW 4.6 mph - N/A Snow Light Snow
1:28 AM 32.0 °F 27.5 °F 32.0 °F 100% 29.83 in 10.0 mi SSW 4.6 mph - N/A   Overcast
1:29 AM 32.0 °F 27.5 °F 32.0 °F 100% 29.83 in 10.0 mi Variable 4.6 mph - N/A   Overcast
1:35 AM 32.0 °F 27.5 °F 32.0 °F 100% 29.83 in 10.0 mi SSW 4.6 mph - N/A   Overcast
1:44 AM 32.0 °F 28.7 °F 32.0 °F 100% 29.83 in 10.0 mi SSW 3.5 mph - N/A   Overcast
1:51 AM 32.0 °F 28.7 °F 32.0 °F 100% 29.83 in 10.0 mi Variable 3.5 mph - N/A   Overcast
1:55 AM 32.5 °F 29.3 °F 32.5 °F 100% 29.83 in 9.0 mi SW 3.5 mph - 0.00 in   Overcast
1:56 AM 32.0 °F 28.7 °F 32.0 °F 100% 29.83 in 8.0 mi Variable 3.5 mph - N/A   Overcast
2:06 AM 32.0 °F 28.7 °F 32.0 °F 100% 29.83 in 6.0 mi WSW 3.5 mph - N/A Snow Light Snow
2:19 AM 32.0 °F 28.7 °F 32.0 °F 100% 29.83 in 10.0 mi Variable 3.5 mph - N/A   Overcast
2:23 AM 32.0 °F 28.7 °F 32.0 °F 100% 29.83 in 10.0 mi SW 3.5 mph - N/A   Overcast
2:27 AM 32.0 °F 27.5 °F 32.0 °F 100% 29.83 in 10.0 mi SW 4.6 mph - N/A   Overcast
2:30 AM 32.0 °F 27.5 °F 32.0 °F 100% 29.83 in 10.0 mi Variable 4.6 mph - N/A   Overcast
2:31 AM 32.0 °F 26.4 °F 32.0 °F 100% 29.83 in 10.0 mi WSW 5.8 mph - N/A   Overcast
2:32 AM 32.0 °F 27.5 °F 32.0 °F 100% 29.83 in 10.0 mi WSW 4.6 mph - N/A   Overcast
2:35 AM 32.0 °F 28.7 °F 32.0 °F 100% 29.83 in 10.0 mi WSW 3.5 mph - N/A   Overcast
2:55 AM 32.7 °F 28.3 °F 32.7 °F 100% 29.83 in 10.0 mi Variable 4.6 mph - 0.00 in   Overcast
3:10 AM 32.0 °F 27.5 °F 32.0 °F 100% 29.83 in 10.0 mi West 4.6 mph - N/A   Overcast
3:55 AM 32.9 °F 27.5 °F 32.7 °F 99% 29.82 in 10.0 mi West 5.8 mph - N/A   Overcast
4:55 AM 32.4 °F 26.0 °F 32.2 °F 99% 29.83 in 10.0 mi West 6.9 mph - N/A   Overcast
5:07 AM 32.0 °F 24.8 °F 30.2 °F 93% 29.84 in 10.0 mi West 8.1 mph - N/A   Overcast
5:10 AM 32.0 °F 23.6 °F 30.2 °F 93% 29.85 in 10.0 mi West 10.4 mph - N/A   Overcast
5:25 AM 30.2 °F 23.4 °F 26.6 °F 86% 29.86 in 10.0 mi West 6.9 mph - N/A   Overcast
5:28 AM 30.2 °F 23.4 °F 26.6 °F 86% 29.86 in 10.0 mi West 6.9 mph - N/A   Overcast
5:29 AM 30.2 °F 23.4 °F 26.6 °F 86% 29.86 in 10.0 mi West 6.9 mph - N/A   Overcast
5:55 AM 28.6 °F 20.7 °F 25.9 °F 90% 29.88 in 10.0 mi WSW 8.1 mph - N/A   Overcast
6:22 AM 26.6 °F 18.2 °F 24.8 °F 93% 29.91 in 10.0 mi SW 8.1 mph - N/A   Overcast
6:39 AM 26.6 °F 21.2 °F 24.8 °F 93% 29.92 in 10.0 mi SW 4.6 mph - N/A   Overcast
6:41 AM 26.6 °F 20.0 °F 24.8 °F 93% 29.92 in 10.0 mi SW 5.8 mph - N/A   Overcast
6:55 AM 26.2 °F 17.8 °F 23.5 °F 90% 29.93 in 10.0 mi WSW 8.1 mph - N/A   Overcast
6:58 AM 26.6 °F 20.0 °F 23.0 °F 86% 29.93 in 10.0 mi WSW 5.8 mph - N/A   Overcast
7:03 AM 26.6 °F 18.2 °F 23.0 °F 86% 29.93 in 10.0 mi SW 8.1 mph - N/A   Overcast
7:55 AM 25.5 °F 17.8 °F 23.7 °F 93% 29.97 in 10.0 mi WSW 6.9 mph - N/A   Overcast
8:31 AM 24.8 °F 17.9 °F 23.0 °F 93% 29.99 in 10.0 mi Variable 5.8 mph - N/A   Overcast
8:39 AM 24.8 °F 16.1 °F 23.0 °F 93% 29.99 in 10.0 mi WSW 8.1 mph - N/A   Overcast
8:48 AM 24.8 °F 17.9 °F 23.0 °F 93% 29.99 in 10.0 mi WSW 5.8 mph - N/A   Overcast
8:55 AM 25.3 °F 18.5 °F 23.5 °F 93% 29.99 in 10.0 mi Variable 5.8 mph - N/A   Overcast
8:57 AM 24.8 °F 16.1 °F 23.0 °F 93% 29.99 in 10.0 mi WSW 8.1 mph - N/A   Overcast
9:37 AM 24.8 °F 15.3 °F 23.0 °F 93% 30.01 in 10.0 mi WSW 9.2 mph - N/A   Overcast
9:55 AM 24.8 °F 16.9 °F 22.8 °F 92% 30.00 in 10.0 mi WSW 6.9 mph - N/A   Overcast
10:06 AM 24.8 °F 16.1 °F 23.0 °F 93% 30.01 in 10.0 mi WSW 8.1 mph - N/A   Overcast
10:55 AM 25.7 °F 17.1 °F 22.8 °F 89% 30.03 in 10.0 mi SW 8.1 mph - N/A   Overcast
11:33 AM 26.6 °F 19.1 °F 23.0 °F 86% 30.04 in 10.0 mi SW 6.9 mph - N/A   Overcast
11:34 AM 26.6 °F 18.2 °F 23.0 °F 86% 30.04 in 10.0 mi SW 8.1 mph - N/A   Overcast
11:43 AM 26.6 °F 17.5 °F 23.0 °F 86% 30.04 in 10.0 mi WSW 9.2 mph - N/A   Overcast
11:55 AM 27.0 °F 18.7 °F 22.3 °F 83% 30.05 in 10.0 mi WSW 8.1 mph - N/A   Overcast
12:44 PM 28.4 °F 19.1 °F 23.0 °F 80% 30.04 in 10.0 mi West 10.4 mph - N/A   Overcast
12:55 PM 28.2 °F 20.2 °F 22.3 °F 78% 30.04 in 10.0 mi WSW 8.1 mph - N/A   Overcast
1:55 PM 28.2 °F 18.9 °F 21.9 °F 77% 30.03 in 10.0 mi SW 10.4 mph - N/A   Overcast
2:55 PM 29.3 °F 20.2 °F 21.6 °F 73% 30.04 in 10.0 mi West 10.4 mph 17.3 mph N/A   Overcast
3:55 PM 28.6 °F 19.3 °F 21.4 °F 74% 30.05 in 10.0 mi West 10.4 mph 17.3 mph N/A   Overcast
4:45 PM 28.4 °F 18.5 °F 21.2 °F 74% 30.04 in 10.0 mi West 11.5 mph - N/A   Scattered Clouds
4:55 PM 28.6 °F 20.7 °F 21.7 °F 76% 30.04 in 10.0 mi West 8.1 mph - N/A   Partly Cloudy
5:55 PM 27.7 °F 21.3 °F 22.1 °F 80% 30.06 in 10.0 mi West 5.8 mph - N/A   Clear
6:55 PM 25.9 °F - 21.9 °F 85% 30.06 in 10.0 mi Calm Calm - N/A   Clear
7:55 PM 24.1 °F 19.7 °F 21.7 °F 91% 30.07 in 10.0 mi WSW 3.5 mph - N/A   Clear
8:55 PM 23.7 °F 19.3 °F 21.6 °F 91% 30.09 in 10.0 mi SW 3.5 mph - N/A   Clear
9:55 PM 22.5 °F - 21.0 °F 94% 30.10 in 10.0 mi Calm Calm - N/A   Clear
10:55 PM 20.8 °F - 20.1 °F 97% 30.09 in 10.0 mi Calm Calm - N/A   Clear
11:55 PM 21.4 °F 15.1 °F 20.3 °F 96% 30.09 in 10.0 mi WSW 4.6 mph - N/A   Clear